Theta_e
318 315 314 324 319 315 318 318 318 320 320 321 322 322 325 326 337 337 339 338 326 325 323 321 320 321 320 320 320 320 319 318 318 318 319 320 321 321 320 320 320 320 319 319 319 319 319 319 319
318 314 316 323 319 319 317 318 320 319 321 322 322 322 320 322 327 331 339 332 326 326 324 321 321 322 322 321 322 322 321 321 320 321 321 321 321 321 320 320 320 319 319 319 319 319 319 319 319
317 315 320 318 316 318 319 319 319 320 321 320 321 324 322 336 337 330 338 328 326 326 325 323 321 323 323 322 323 323 323 322 322 322 322 322 321 321 320 319 319 319 319 319 319 320 320 320 319
319 320 321 320 318 319 320 320 318 318 322 323 322 320 324 325 338 335 335 327 326 326 325 324 322 323 324 323 323 323 323 323 323 323 322 322 321 321 320 320 319 319 319 319 319 319 320 320 320
324 324 320 320 320 320 320 320 320 318 319 323 324 321 322 330 338 340 335 327 326 326 325 325 324 324 324 323 323 323 323 323 323 323 322 322 322 321 321 320 320 320 320 320 320 320 320 320 320
323 320 319 320 318 320 320 321 321 320 322 326 323 321 325 329 337 339 333 326 326 326 325 324 323 324 325 323 323 324 323 323 323 323 323 322 322 321 321 320 320 320 320 320 320 320 320 320 320
323 319 321 319 320 322 321 323 322 321 323 326 326 321 326 330 334 338 327 326 325 325 325 324 323 323 324 324 323 323 323 323 323 323 323 322 322 321 320 320 319 319 319 319 319 320 320 320 320
326 322 325 323 323 323 323 325 326 324 325 326 326 323 325 330 337 338 330 326 325 325 325 325 324 323 323 324 323 322 322 322 322 322 322 321 321 320 320 319 319 318 318 318 318 319 319 319 320
322 326 326 325 324 324 325 325 326 326 326 325 326 326 327 327 339 340 333 327 325 325 324 324 324 324 323 323 323 322 321 321 321 321 320 320 320 321 320 320 319 318 317 317 317 317 318 318 319
317 319 324 324 324 325 324 325 324 325 323 324 324 325 323 325 333 341 336 330 325 323 323 323 324 324 324 323 323 322 321 321 320 320 321 320 320 320 320 319 318 318 317 316 316 316 316 316 317
315 318 321 322 320 320 320 320 321 321 322 323 322 322 321 322 327 332 339 336 326 324 323 322 323 324 324 325 323 323 322 321 321 321 322 321 321 320 320 320 319 319 318 317 316 316 315 315 315
311 313 311 313 313 313 314 314 315 317 318 318 318 319 319 320 322 326 330 336 331 326 324 323 323 323 324 324 324 324 324 323 323 323 323 323 323 321 320 319 320 320 320 319 318 316 315 314 314
309 310 311 311 312 313 313 313 314 315 315 317 318 318 318 319 321 324 326 329 334 332 326 324 323 323 323 324 325 325 325 325 325 325 324 324 324 323 321 320 321 324 326 329 327 323 319 316 314
309 310 309 310 311 311 312 313 314 316 316 317 316 317 318 318 319 321 323 326 327 329 329 329 326 323 323 325 326 326 326 326 326 325 325 325 324 324 325 325 327 330 333 335 336 335 330 323 319
310 308 306 309 310 310 312 311 313 314 315 316 316 316 316 317 318 318 321 324 326 327 329 331 334 331 325 325 325 326 325 325 325 325 325 325 326 326 330 331 332 332 335 337 339 339 337 333 327
306 304 305 306 309 310 311 311 312 313 313 314 314 314 314 314 314 315 318 320 324 326 327 327 328 334 334 327 326 325 327 326 325 325 328 327 328 333 333 331 333 333 336 338 340 341 340 337 332
305 308 308 308 308 308 310 309 311 312 312 313 313 313 313 313 314 314 314 315 317 320 324 326 326 327 333 338 329 327 326 329 329 329 328 334 335 337 331 329 332 334 335 337 340 342 341 339 336
308 309 308 308 309 309 309 310 310 312 312 312 312 313 313 313 313 313 313 313 314 316 319 322 325 328 330 335 338 338 333 330 332 331 336 339 337 333 329 328 330 333 333 334 339 342 342 341 338
308 309 309 308 309 310 309 310 310 311 311 311 311 312 312 312 312 312 313 312 313 314 316 318 323 328 333 329 332 339 340 336 334 337 337 337 335 333 329 329 330 331 329 335 341 343 343 341 339
308 309 308 309 310 310 309 311 310 310 310 311 311 311 311 311 311 310 310 310 311 312 313 315 318 323 325 326 331 333 339 340 338 338 337 336 336 334 330 331 331 328 331 338 341 343 343 342 340
309 310 309 311 310 310 309 309 309 308 309 310 311 311 311 311 309 310 311 311 311 311 312 313 315 317 319 323 325 335 337 340 340 339 337 334 334 332 333 331 331 326 335 338 341 343 344 343 341
311 309 311 310 309 309 310 311 310 309 309 308 309 311 310 310 310 312 312 312 313 313 311 312 313 315 318 320 323 324 330 332 338 339 337 335 333 335 332 332 328 329 336 339 341 343 344 343 340
308 310 310 309 309 310 310 309 308 309 308 307 306 309 309 311 312 313 313 313 312 313 315 312 312 313 316 316 320 324 326 329 333 338 337 337 335 335 332 329 329 331 337 340 342 343 343 342 340
309 308 305 305 306 308 307 309 308 307 307 308 307 309 312 314 314 313 312 313 312 312 312 315 313 313 314 316 317 322 325 326 331 334 335 337 336 334 330 328 327 335 339 342 342 343 344 342 340
305 304 305 305 307 308 307 308 308 308 309 308 308 312 314 313 312 312 312 312 312 312 312 313 315 313 313 314 316 319 324 327 329 332 335 337 335 332 329 328 326 332 338 341 343 342 343 340 340
307 305 305 308 310 306 306 308 307 307 308 311 314 314 313 312 312 312 311 312 312 312 312 313 317 315 314 314 315 317 322 327 329 330 332 336 336 332 327 326 325 335 341 344 342 340 339 340 340
308 306 304 306 307 307 307 307 307 308 309 313 313 313 312 312 312 311 312 312 313 312 312 313 319 317 317 314 315 317 319 324 327 328 330 335 337 330 326 325 326 336 343 344 340 340 340 340 339
307 306 308 301 306 305 307 309 309 309 309 310 311 311 312 312 312 312 311 314 314 314 314 318 319 319 319 315 315 317 321 323 325 328 331 335 335 329 326 325 329 341 345 343 341 340 340 340 339
306 306 308 304 303 307 311 308 307 308 308 309 309 311 311 312 313 312 313 318 318 318 318 319 321 322 322 320 315 318 321 324 325 329 334 336 332 327 326 326 330 343 345 343 339 340 338 338 338
305 306 306 306 309 309 309 311 309 308 308 309 310 311 312 312 314 312 313 316 313 315 316 320 326 330 327 322 315 318 322 324 328 333 336 334 329 327 327 327 333 344 344 341 338 338 337 338 337
Wind_Speed
6 4 4 2 3 4 3 6 1 2 6 2 15 5 9 12 7 6 7 24 32 36 37 35 35 32 30 28 27 26 25 24 23 22 21 20 18 16 14 13 11 11 10 9 8 7 7 6 6
5 3 4 2 4 1 4 4 2 3 7 16 18 8 10 14 35 26 15 32 35 37 37 38 37 34 32 31 29 27 26 25 24 22 20 18 16 14 13 11 10 9 8 8 7 6 5 5 5
6 5 4 4 4 6 4 3 4 5 14 4 5 21 6 5 12 22 15 41 41 39 38 38 38 36 33 33 30 28 26 25 24 21 19 17 15 13 11 11 10 8 7 6 5 5 4 4 3
2 3 3 3 9 4 3 3 4 9 5 10 11 8 15 11 7 31 21 42 44 42 41 39 38 36 34 34 32 29 26 24 23 20 18 15 14 12 11 10 9 8 6 5 4 4 4 3 2
5 2 1 3 8 3 2 6 9 7 7 15 20 8 18 11 8 21 26 41 44 42 42 41 39 37 34 34 32 29 27 25 22 19 17 15 14 12 11 10 9 8 7 6 5 4 3 3 2
3 3 1 4 10 4 4 8 10 2 7 17 12 13 10 29 12 17 35 42 43 43 43 41 40 36 34 33 32 30 27 25 22 19 17 15 14 13 12 11 10 9 9 8 7 6 5 5 4
4 3 4 4 1 2 8 6 6 4 7 7 22 4 17 36 21 13 46 45 45 43 43 41 40 38 34 32 31 30 27 25 22 20 18 16 15 14 13 12 12 11 11 11 11 9 8 8 7
5 3 3 4 2 3 3 2 9 4 6 16 15 6 18 37 20 11 40 44 46 45 43 41 40 38 36 34 31 30 28 26 23 21 19 17 16 15 15 14 14 14 14 14 13 13 12 11 10
5 1 4 5 5 2 4 3 7 5 13 21 10 18 22 31 22 12 36 40 46 46 44 42 40 39 36 33 31 30 28 26 25 23 21 19 19 17 16 15 15 15 17 17 16 16 16 15 14
5 4 7 1 3 2 9 2 11 5 12 8 22 23 21 25 22 9 29 33 44 45 46 43 41 39 36 34 32 30 29 28 27 24 22 23 21 18 17 16 17 17 19 19 18 19 19 18 17
4 5 3 2 4 6 8 12 4 8 6 8 21 25 27 22 16 15 18 26 38 42 44 43 41 39 37 35 33 31 29 29 28 25 24 23 21 21 21 19 18 18 19 20 20 21 21 20 18
0 3 5 5 6 7 4 11 10 16 11 18 20 25 21 19 19 16 10 18 31 37 41 42 42 40 38 36 34 31 30 29 28 26 25 23 22 23 23 20 18 17 19 19 20 21 21 20 20
3 2 8 10 7 11 16 12 9 28 23 23 16 17 19 17 13 14 16 7 12 26 35 40 41 41 40 38 35 33 31 30 28 27 26 25 24 23 22 21 19 16 16 16 18 19 20 19 20
3 3 7 7 10 9 7 17 11 28 6 17 22 27 24 20 14 12 15 17 15 14 17 27 37 41 42 40 38 38 35 33 31 29 27 27 25 23 22 20 18 15 14 14 15 16 16 16 17
5 5 5 7 6 5 14 10 16 16 12 12 16 13 16 13 11 10 11 17 20 18 15 15 26 34 42 42 43 42 37 36 34 32 30 29 27 24 21 19 17 13 14 14 15 15 16 15 15
4 4 3 5 4 4 6 6 5 6 17 9 17 18 14 12 13 10 7 10 13 18 18 20 19 26 41 49 47 44 39 37 39 33 29 30 29 25 22 20 17 14 15 16 16 16 15 15 15
4 1 2 7 6 4 0 4 7 23 15 13 21 18 18 18 17 16 13 12 12 14 17 17 22 25 25 41 46 45 43 42 36 34 31 31 27 26 23 20 17 14 15 18 17 16 16 16 15
3 2 3 4 6 5 8 7 6 15 16 18 20 19 22 18 15 16 16 15 13 12 15 18 22 25 22 26 39 43 44 41 33 35 36 28 27 26 24 22 19 16 17 18 17 16 17 16 13
3 3 5 5 5 5 8 16 10 10 14 16 20 19 17 15 14 13 15 17 17 14 12 15 18 21 25 24 28 38 45 45 39 41 35 29 29 28 26 24 21 18 18 15 15 16 17 15 14
4 3 4 5 5 7 9 23 18 13 9 17 14 13 16 14 19 21 18 20 22 22 18 15 14 19 25 29 31 31 37 43 41 40 35 33 30 28 29 25 22 20 18 15 14 15 16 16 16
3 4 3 5 3 5 7 9 5 5 4 5 10 14 19 22 18 16 19 21 24 24 24 24 17 17 19 27 33 34 32 39 46 45 37 39 36 32 31 25 24 21 17 15 13 14 17 16 16
3 4 4 5 4 3 4 6 2 8 9 4 12 21 19 18 20 21 24 27 28 30 29 29 26 21 20 21 31 38 42 40 41 45 41 42 37 33 29 26 25 21 17 14 12 15 17 15 17
7 3 3 3 3 2 3 4 5 4 4 8 8 13 12 20 23 23 23 22 24 26 26 29 31 29 25 23 25 34 39 41 43 50 47 45 37 33 30 28 25 21 18 14 15 17 17 16 18
3 4 5 4 2 2 6 5 1 2 6 6 7 15 18 17 19 24 28 32 34 31 31 28 29 33 31 28 27 31 38 42 40 44 50 48 36 30 31 30 25 21 19 16 15 15 15 15 15
5 6 4 4 2 5 1 4 8 10 17 6 8 15 17 20 26 30 36 41 41 41 38 33 30 33 36 34 32 29 37 39 42 40 44 48 37 29 30 30 25 23 20 17 16 16 16 18 16
4 6 4 5 3 6 3 8 7 6 12 15 10 13 21 25 26 33 41 44 44 47 43 34 32 36 36 39 35 30 36 41 43 44 45 50 40 29 29 27 23 21 19 18 16 16 16 17 15
2 3 4 2 2 2 5 8 12 15 12 6 11 17 21 24 28 34 43 51 53 54 49 33 34 38 38 40 41 34 33 42 46 44 44 46 38 31 28 25 21 21 20 17 15 18 18 17 15
5 5 0 3 3 5 5 6 10 11 15 5 9 17 27 26 27 38 48 46 48 43 36 30 33 38 41 43 44 38 33 39 43 46 43 37 36 32 28 23 22 22 19 18 15 19 18 16 17
1 1 3 3 4 4 5 6 5 6 9 9 9 19 27 23 27 35 44 37 36 30 30 35 32 35 43 43 46 41 36 37 39 40 34 37 37 32 25 25 24 24 22 19 17 20 16 16 16
5 6 6 3 4 4 3 15 4 14 13 8 16 23 27 22 24 37 42 39 41 35 34 36 33 35 44 42 47 43 36 36 36 34 35 39 34 27 25 25 24 26 25 17 19 20 16 17 15
Wind_Direction
279 298 229 120 54 58 267 264 272 338 337 250 294 227 224 211 174 214 229 187 182 175 170 167 161 161 162 157 154 155 158 161 162 159 156 151 148 145 145 142 138 135 133 127 119 113 110 111 111
301 254 176 110 104 270 275 251 227 215 276 310 302 285 236 246 242 241 260 177 180 175 172 169 164 164 162 160 157 158 161 162 165 163 161 158 156 157 155 153 150 150 148 143 135 129 120 113 107
286 203 154 129 143 217 219 187 220 267 323 298 281 318 266 253 251 207 223 174 175 176 175 172 169 166 166 163 163 165 168 169 170 170 169 167 168 168 169 169 168 169 168 160 152 144 136 130 127
180 222 114 153 224 221 201 215 273 324 337 330 315 305 312 306 264 214 204 176 175 177 176 174 172 172 171 169 168 171 176 178 178 177 178 178 182 182 184 186 187 189 188 190 185 178 164 152 166
192 244 103 226 247 137 226 265 296 298 290 318 331 291 301 341 264 206 197 180 177 179 179 177 175 174 178 175 173 176 182 186 186 187 190 190 194 197 199 203 207 211 216 219 220 216 210 202 213
209 165 146 220 243 100 355 272 276 253 298 323 334 311 322 346 324 206 191 181 181 180 181 181 180 178 182 183 180 183 188 192 194 195 198 203 205 210 214 218 222 230 235 241 246 246 245 248 245
177 140 228 260 60 108 177 270 297 323 305 320 335 341 340 346 339 213 180 182 183 186 184 184 184 184 187 190 188 189 192 197 202 204 207 213 218 222 226 231 236 242 247 253 255 257 257 257 260
203 142 214 241 241 222 266 10 301 341 302 326 357 10 338 350 331 254 192 185 188 189 190 188 189 190 193 194 196 196 197 202 209 214 216 220 227 231 236 240 245 250 253 256 259 262 261 261 262
193 115 236 232 134 211 265 53 296 283 291 323 325 354 355 344 342 252 197 193 192 193 194 193 194 195 198 199 200 203 205 207 214 219 224 226 231 237 243 248 251 256 260 260 263 263 261 261 262
172 170 216 333 113 21 295 312 321 301 314 314 328 342 355 351 354 278 201 201 199 199 198 197 199 200 201 204 205 207 210 213 217 221 226 230 235 243 252 252 255 259 264 265 267 266 262 261 264
189 211 205 269 330 305 281 298 271 292 295 312 316 319 328 336 343 338 244 226 210 206 206 204 204 205 207 209 211 211 214 218 223 225 231 236 243 246 249 256 258 265 270 272 273 271 267 268 266
196 282 5 319 325 309 287 305 289 272 272 297 301 305 315 326 326 333 317 248 225 220 215 210 209 210 213 217 217 219 221 225 228 231 234 239 246 251 254 259 266 269 273 276 277 274 270 267 268
155 355 330 312 304 287 295 277 279 281 283 295 308 313 313 309 306 311 311 297 265 246 235 229 218 214 218 222 222 225 228 231 236 239 240 244 250 256 261 264 267 270 271 280 283 280 276 273 269
318 260 279 276 266 255 252 275 267 267 293 296 301 300 297 302 310 303 300 305 287 269 269 251 245 226 221 224 228 229 230 233 238 241 246 253 255 258 262 264 268 267 274 277 278 278 275 269 264
310 318 310 229 240 237 226 257 251 283 321 294 296 311 308 309 301 298 309 297 301 290 284 292 252 244 238 231 233 236 237 239 240 242 248 255 257 259 262 264 263 270 271 270 271 271 272 269 262
34 36 357 290 337 284 159 263 317 7 346 312 307 325 322 322 336 349 301 299 278 283 277 290 297 261 244 240 236 236 241 246 246 241 246 254 256 258 258 262 265 273 273 273 273 269 271 271 262
359 237 288 313 322 279 7 280 314 324 331 305 311 311 316 322 327 340 336 326 298 281 277 282 286 289 265 245 243 242 239 241 250 249 249 246 253 255 257 265 269 274 276 275 271 267 266 265 263
254 303 292 263 297 354 304 287 288 307 312 298 302 304 311 320 334 339 334 321 315 295 276 265 276 280 282 261 247 245 240 243 242 242 241 245 253 252 256 265 273 276 281 279 272 270 261 262 264
232 203 221 257 266 343 293 289 284 273 281 282 282 287 297 313 324 337 329 319 312 299 286 269 261 277 275 278 264 251 243 237 234 234 240 241 249 250 254 263 272 279 285 279 269 263 255 257 259
208 245 261 284 297 314 294 290 288 263 238 252 270 287 293 300 310 316 310 310 304 301 292 280 265 257 267 277 275 265 251 240 234 237 237 249 249 252 255 261 271 280 276 269 264 261 252 252 253
217 229 245 243 281 271 301 290 296 330 258 243 271 284 284 297 310 314 317 317 317 305 294 286 272 260 266 260 275 265 252 245 238 241 239 242 248 254 252 259 267 272 260 262 261 258 253 250 253
281 217 247 282 358 296 60 279 228 235 251 302 280 290 298 304 307 311 316 318 317 310 299 287 280 267 264 256 256 267 261 257 251 241 252 247 250 251 253 259 265 259 251 257 257 250 248 243 245
234 352 286 279 282 345 289 292 260 143 210 287 295 283 280 299 309 317 323 322 321 316 307 288 280 272 261 264 255 251 258 255 252 250 257 251 249 252 253 255 257 248 246 250 249 245 242 242 237
344 4 353 47 73 325 242 199 216 179 123 264 265 286 296 305 313 314 319 322 317 319 315 302 282 270 266 261 265 249 249 250 245 244 252 251 249 249 248 255 254 240 239 242 244 245 235 235 233
70 49 338 334 8 233 190 295 249 288 302 250 260 281 303 315 319 320 322 320 316 317 314 305 293 274 266 261 263 258 246 245 244 243 245 245 245 244 253 258 250 238 235 237 236 238 225 214 227
232 151 166 255 223 270 304 258 257 241 255 255 249 285 306 311 320 326 326 321 316 314 310 299 293 280 266 260 259 258 246 245 244 243 241 242 244 248 258 259 246 234 232 233 233 217 202 215 218
194 166 192 246 202 350 222 289 297 271 257 280 271 285 302 312 320 325 332 324 316 307 304 289 290 276 270 258 256 253 249 238 243 244 242 241 238 241 250 245 239 229 226 229 225 200 207 209 213
165 166 197 11 296 264 258 251 244 288 288 248 287 296 310 310 316 327 328 318 309 303 294 288 287 278 272 256 251 254 251 236 241 243 244 233 228 235 239 235 232 224 225 226 224 202 212 204 211
143 277 90 148 163 222 295 253 217 241 263 269 269 286 304 299 319 328 330 332 324 310 306 296 289 278 270 259 244 248 249 237 241 242 231 220 226 232 231 233 227 220 225 221 202 205 206 207 214
168 201 167 167 236 224 231 270 257 270 279 294 290 299 299 287 312 335 335 325 328 321 316 307 293 280 266 252 240 242 241 235 238 231 214 218 225 226 231 228 223 219 221 209 201 211 209 214 221